OSCAR 25 [?]

Last updated on Tue Jun 27 2023 00:03:36 GMT+0000 (Coordinated Universal Time)

1 19419U 88074A 23176.79052819 .00000107 00000+0 17074-3 0 9990 2 19419 90.0094 18.1981 0094491 296.9484 73.3693 13.42366837705797
UTC large
Height (km)
Speed (km/s)
/
Latitude / Longitude
Inclination (degrees)
Orbital Period (minutes)
Azimuth
Elevation
Range (km)
Doppler Factor

Next 0 passes for location: London (51.5072 / 0.1276)

Sorry there are no passes over London.